�������l�o���
Date,Time,MP-1(��Sv/h),MP-2(��Sv/h),MP-3(��Sv/h),MP-4(��Sv/h),MP-5(��Sv/h),MP-6(��Sv/h),MP-7(��Sv/h),MP-8(��Sv/h),����,����(m/s),���J
2020/04/17,00:00,0.687,0.995,0.650,1.197,0.853,0.394,0.687,0.654,���쓌,2.8,�L
2020/04/17,00:10,0.685,0.992,0.651,1.194,0.852,0.393,0.687,0.654,���쓌,3.0,�L
2020/04/17,00:20,0.687,0.995,0.650,1.194,0.851,0.394,0.687,0.653,���쓌,2.9,�L
2020/04/17,00:30,0.688,0.993,0.652,1.193,0.851,0.393,0.688,0.654,���쓌,2.0,�L
2020/04/17,00:40,0.687,0.994,0.648,1.195,0.852,0.393,0.687,0.654,�쓌,2.2,�L
2020/04/17,00:50,0.689,0.994,0.649,1.193,0.851,0.395,0.689,0.654,���쓌,2.3,�L
2020/04/17,01:00,0.688,0.992,0.651,1.195,0.853,0.393,0.689,0.652,��,1.7,�L
2020/04/17,01:10,0.688,0.993,0.649,1.194,0.853,0.394,0.688,0.653,���k��,2.0,�L
2020/04/17,01:20,0.688,0.993,0.651,1.196,0.852,0.393,0.688,0.654,��,1.7,��
2020/04/17,01:30,0.687,0.991,0.650,1.195,0.852,0.396,0.688,0.655,�쐼,1.5,��
2020/04/17,01:40,0.689,0.994,0.650,1.196,0.853,0.394,0.688,0.655,�쐼,2.0,��
2020/04/17,01:50,0.688,0.995,0.650,1.196,0.852,0.392,0.688,0.654,�쐼,1.9,��
2020/04/17,02:00,0.687,0.994,0.651,1.196,0.852,0.394,0.688,0.655,��쐼,1.2,��
2020/04/17,02:10,0.688,0.993,0.649,1.195,0.851,0.393,0.688,0.653,�쐼,1.7,��
2020/04/17,02:20,0.685,0.995,0.651,1.197,0.852,0.394,0.688,0.654,�쐼,1.7,��
2020/04/17,02:30,0.686,0.994,0.649,1.196,0.853,0.393,0.688,0.655,��쐼,1.2,��
2020/04/17,02:40,0.687,0.993,0.650,1.196,0.854,0.393,0.688,0.654,�쐼,1.2,��
2020/04/17,02:50,0.685,0.994,0.648,1.196,0.851,0.394,0.688,0.654,��쐼,1.2,��
2020/04/17,03:00,0.687,0.995,0.650,1.196,0.853,0.393,0.689,0.652,�쐼,1.4,��
2020/04/17,03:10,0.688,0.993,0.650,1.195,0.852,0.392,0.687,0.654,�쐼,0.8,��
2020/04/17,03:20,0.686,0.994,0.650,1.197,0.854,0.393,0.688,0.654,-,CALM,��
2020/04/17,03:30,0.687,0.994,0.651,1.194,0.852,0.393,0.687,0.653,���k��,1.1,��
2020/04/17,03:40,0.686,0.993,0.651,1.195,0.852,0.393,0.688,0.654,��,1.7,��
2020/04/17,03:50,0.686,0.994,0.652,1.195,0.850,0.392,0.686,0.654,���쐼,1.9,��
2020/04/17,04:00,0.685,0.993,0.651,1.194,0.851,0.392,0.688,0.654,��,1.7,��
2020/04/17,04:10,0.686,0.994,0.649,1.193,0.852,0.393,0.688,0.652,���쐼,2.0,��
2020/04/17,04:20,0.686,0.993,0.652,1.196,0.855,0.393,0.688,0.655,���쐼,2.2,��
2020/04/17,04:30,0.688,0.992,0.650,1.194,0.852,0.392,0.687,0.653,���쐼,2.5,��
2020/04/17,04:40,0.686,0.992,0.650,1.196,0.852,0.393,0.688,0.654,���쐼,1.5,��
2020/04/17,04:50,0.684,0.994,0.649,1.195,0.850,0.393,0.687,0.654,��,2.0,��
2020/04/17,05:00,0.687,0.992,0.649,1.195,0.854,0.393,0.688,0.653,��,1.9,��
2020/04/17,05:10,0.686,0.992,0.651,1.197,0.851,0.393,0.688,0.655,��,1.4,��
2020/04/17,05:20,0.687,0.995,0.650,1.196,0.855,0.393,0.687,0.653,���쐼,1.9,��
2020/04/17,05:30,0.687,0.992,0.650,1.194,0.851,0.392,0.690,0.653,���쐼,2.3,��
2020/04/17,05:40,0.687,0.994,0.647,1.196,0.852,0.393,0.689,0.654,�쐼,2.0,��
2020/04/17,05:50,0.687,0.992,0.650,1.197,0.853,0.392,0.688,0.654,���쐼,2.0,��
2020/04/17,06:00,0.687,0.993,0.649,1.195,0.852,0.392,0.688,0.654,���쐼,2.0,��
2020/04/17,06:10,0.688,0.991,0.649,1.197,0.852,0.393,0.687,0.653,�쐼,2.2,��
2020/04/17,06:20,0.686,0.990,0.650,1.196,0.852,0.394,0.688,0.654,�쐼,1.5,��
2020/04/17,06:30,0.685,0.993,0.651,1.197,0.852,0.392,0.689,0.654,���쐼,1.8,��
2020/04/17,06:40,0.688,0.991,0.650,1.197,0.851,0.393,0.688,0.654,�쐼,1.9,��
2020/04/17,06:50,0.688,0.993,0.650,1.198,0.852,0.394,0.689,0.654,�쐼,2.3,��
2020/04/17,07:00,0.687,0.991,0.650,1.198,0.853,0.392,0.689,0.653,��쐼,1.9,��
2020/04/17,07:10,0.687,0.993,0.650,1.197,0.853,0.393,0.690,0.654,��,1.5,��
2020/04/17,07:20,0.686,0.992,0.651,1.197,0.854,0.392,0.690,0.654,�쐼,1.2,��
2020/04/17,07:30,0.687,0.994,0.649,1.196,0.853,0.394,0.688,0.655,���쓌,1.4,��
2020/04/17,07:40,0.687,0.993,0.650,1.196,0.850,0.393,0.689,0.654,���쓌,2.2,��
2020/04/17,07:50,0.687,0.995,0.650,1.199,0.854,0.395,0.689,0.654,��,2.5,��
2020/04/17,08:00,0.688,0.993,0.650,1.196,0.853,0.392,0.689,0.654,���쓌,3.0,��
2020/04/17,08:10,0.687,0.992,0.652,1.197,0.853,0.391,0.689,0.655,���쓌,3.1,��
2020/04/17,08:20,0.688,0.992,0.653,1.197,0.853,0.390,0.688,0.655,���쓌,3.0,��
2020/04/17,08:30,0.687,0.991,0.652,1.197,0.854,0.390,0.687,0.654,��,2.3,��
2020/04/17,08:40,0.687,0.989,0.650,1.199,0.856,0.391,0.686,0.652,�쓌,3.1,��
2020/04/17,08:50,0.688,0.989,0.647,1.196,0.855,0.391,0.685,0.651,�쓌,3.2,��
2020/04/17,09:00,0.687,0.987,0.646,1.197,0.853,0.390,0.685,0.654,���쓌,3.4,��
2020/04/17,09:10,0.687,0.987,0.648,1.197,0.855,0.392,0.686,0.653,���쓌,3.3,��
2020/04/17,09:20,0.689,0.988,0.649,1.196,0.854,0.392,0.685,0.654,�쓌,3.6,��
2020/04/17,09:30,0.688,0.985,0.650,1.198,0.855,0.391,0.686,0.652,�쓌,3.7,��
2020/04/17,09:40,0.687,0.987,0.650,1.198,0.856,0.394,0.687,0.653,���쓌,4.5,��
2020/04/17,09:50,0.688,0.990,0.651,1.196,0.855,0.391,0.686,0.652,�쓌,4.3,��
2020/04/17,10:00,0.690,0.989,0.651,1.198,0.854,0.393,0.686,0.651,���쓌,5.1,��
2020/04/17,10:10,0.690,0.988,0.651,1.197,0.856,0.392,0.688,0.651,�쓌,4.3,��
2020/04/17,10:20,0.689,0.991,0.651,1.199,0.858,0.392,0.686,0.653,�쓌,5.1,��
2020/04/17,10:30,0.690,0.988,0.649,1.201,0.856,0.391,0.686,0.652,���쓌,4.9,��
2020/04/17,10:40,0.689,0.990,0.653,1.198,0.856,0.393,0.688,0.653,�쓌,4.8,��
2020/04/17,10:50,0.690,0.991,0.652,1.201,0.855,0.392,0.689,0.654,���쓌,5.3,��
2020/04/17,11:00,0.689,0.993,0.651,1.199,0.854,0.391,0.687,0.652,�쓌,5.8,��
2020/04/17,11:10,0.691,0.992,0.651,1.199,0.854,0.392,0.687,0.652,�쓌,5.8,��
2020/04/17,11:20,0.690,0.993,0.651,1.199,0.855,0.393,0.687,0.653,���쓌,5.5,��
2020/04/17,11:30,0.689,0.988,0.653,1.199,0.855,0.392,0.688,0.653,���쓌,4.7,��
2020/04/17,11:40,0.690,0.993,0.650,1.200,0.856,0.392,0.687,0.652,���쓌,5.5,��
2020/04/17,11:50,0.690,0.994,0.651,1.200,0.856,0.392,0.689,0.652,�쓌,5.5,��
2020/04/17,12:00,0.689,0.993,0.650,1.197,0.857,0.392,0.688,0.652,���쓌,6.1,��
2020/04/17,12:10,0.688,0.996,0.650,1.200,0.856,0.392,0.688,0.652,�쓌,4.7,��
2020/04/17,12:20,0.689,0.997,0.652,1.201,0.856,0.393,0.689,0.655,�쓌,5.1,��
2020/04/17,12:30,0.689,0.997,0.651,1.199,0.856,0.394,0.689,0.653,���쓌,5.0,��
2020/04/17,12:40,0.689,0.997,0.652,1.198,0.857,0.393,0.688,0.654,�쓌,4.9,��
2020/04/17,12:50,0.690,0.997,0.650,1.202,0.858,0.395,0.687,0.651,�쓌,5.2,��
2020/04/17,13:00,0.690,0.996,0.649,1.199,0.857,0.392,0.687,0.652,�쓌,5.2,��
2020/04/17,13:10,0.690,0.995,0.653,1.199,0.856,0.393,0.689,0.653,�쓌,6.2,��
2020/04/17,13:20,0.689,0.992,0.652,1.201,0.856,0.393,0.688,0.653,�쓌,6.3,��
2020/04/17,13:30,0.690,0.993,0.652,1.201,0.856,0.393,0.690,0.653,�쓌,6.3,��
2020/04/17,13:40,0.692,0.997,0.653,1.201,0.858,0.394,0.690,0.654,���쓌,5.2,��
2020/04/17,13:50,0.689,0.996,0.651,1.201,0.857,0.394,0.690,0.653,���쓌,5.4,��
2020/04/17,14:00,0.690,0.994,0.652,1.201,0.856,0.393,0.689,0.654,�쓌,6.3,��
2020/04/17,14:10,0.688,0.994,0.652,1.203,0.857,0.394,0.688,0.654,�쓌,5.1,��
2020/04/17,14:20,0.689,0.996,0.650,1.204,0.858,0.394,0.691,0.653,�쓌,6.8,��
2020/04/17,14:30,0.688,0.996,0.652,1.202,0.858,0.394,0.689,0.653,�쓌,5.4,��
2020/04/17,14:40,0.688,0.996,0.654,1.200,0.859,0.395,0.689,0.652,�쓌,6.8,��
2020/04/17,14:50,0.689,0.996,0.653,1.202,0.859,0.394,0.689,0.654,�쓌,5.1,��
2020/04/17,15:00,0.689,0.997,0.655,1.202,0.856,0.395,0.691,0.654,���쓌,6.8,��
2020/04/17,15:10,0.688,1.000,0.654,1.202,0.859,0.395,0.690,0.653,���쓌,7.0,��
2020/04/17,15:20,0.689,0.998,0.656,1.202,0.858,0.396,0.691,0.651,�쓌,5.8,��
2020/04/17,15:30,0.691,1.001,0.654,1.203,0.860,0.396,0.687,0.653,�쓌,5.9,��
2020/04/17,15:40,0.691,1.004,0.656,1.201,0.859,0.396,0.687,0.654,�쓌,5.0,��
2020/04/17,15:50,0.691,1.002,0.654,1.201,0.859,0.396,0.689,0.654,�쓌,5.2,��
2020/04/17,16:00,0.689,1.004,0.654,1.200,0.858,0.397,0.689,0.653,�쓌,4.9,��
2020/04/17,16:10,0.689,1.004,0.655,1.200,0.858,0.396,0.691,0.653,�쓌,5.8,��
2020/04/17,16:20,0.693,1.004,0.655,1.202,0.858,0.397,0.688,0.654,�쓌,5.3,��
2020/04/17,16:30,0.693,1.003,0.656,1.202,0.860,0.395,0.689,0.656,�쓌,5.7,��
2020/04/17,16:40,0.691,1.006,0.655,1.199,0.860,0.395,0.688,0.655,�쓌,6.1,��
2020/04/17,16:50,0.693,1.004,0.657,1.206,0.860,0.395,0.689,0.657,�쓌,6.7,��
2020/04/17,17:00,0.694,1.004,0.655,1.203,0.860,0.396,0.688,0.655,�쓌,5.6,��
2020/04/17,17:10,0.694,1.005,0.656,1.202,0.861,0.397,0.689,0.657,�쓌,5.5,��
2020/04/17,17:20,0.691,1.004,0.657,1.205,0.861,0.396,0.691,0.656,�쓌,6.4,��
2020/04/17,17:30,0.693,1.004,0.656,1.203,0.861,0.396,0.689,0.656,�쓌,6.2,��
2020/04/17,17:40,0.691,1.002,0.655,1.204,0.863,0.397,0.690,0.656,�쓌,5.6,��
2020/04/17,17:50,0.693,1.004,0.655,1.205,0.863,0.395,0.689,0.657,�쓌,5.0,��
2020/04/17,18:00,0.690,1.004,0.656,1.204,0.862,0.396,0.690,0.656,�쓌,5.5,��
2020/04/17,18:10,0.694,1.004,0.657,1.202,0.860,0.397,0.691,0.657,��쓌,6.4,��
2020/04/17,18:20,0.692,1.006,0.657,1.205,0.861,0.397,0.689,0.657,��쓌,6.8,��
2020/04/17,18:30,0.693,1.003,0.656,1.204,0.863,0.397,0.688,0.657,��쓌,6.1,��
2020/04/17,18:40,0.694,1.004,0.656,1.204,0.859,0.396,0.691,0.656,�쓌,6.6,��
2020/04/17,18:50,0.693,1.004,0.655,1.203,0.861,0.395,0.690,0.656,��쓌,7.6,��
2020/04/17,19:00,0.694,1.006,0.656,1.206,0.863,0.396,0.691,0.656,��쓌,6.2,��
2020/04/17,19:10,0.693,1.002,0.657,1.204,0.860,0.396,0.691,0.656,��쓌,6.8,��
2020/04/17,19:20,0.693,1.003,0.657,1.206,0.862,0.397,0.690,0.657,��쓌,5.8,��
2020/04/17,19:30,0.690,1.005,0.655,1.204,0.861,0.396,0.691,0.656,��,5.4,��
2020/04/17,19:40,0.693,1.003,0.656,1.203,0.861,0.396,0.690,0.656,��쓌,4.4,��
2020/04/17,19:50,0.695,1.004,0.656,1.205,0.861,0.395,0.690,0.657,��,4.9,��
2020/04/17,20:00,0.694,1.006,0.656,1.203,0.862,0.396,0.691,0.656,��,4.8,��
2020/04/17,20:10,0.693,1.004,0.657,1.206,0.861,0.397,0.692,0.655,��,5.5,��
2020/04/17,20:20,0.693,1.004,0.657,1.203,0.861,0.396,0.691,0.654,��,5.2,��
2020/04/17,20:30,0.692,1.003,0.656,1.203,0.861,0.396,0.692,0.657,��,5.1,��
2020/04/17,20:40,0.693,1.005,0.657,1.202,0.862,0.396,0.691,0.656,��,5.4,��
2020/04/17,20:50,0.694,1.005,0.654,1.204,0.861,0.397,0.691,0.656,��,6.8,��
2020/04/17,21:00,0.690,1.004,0.656,1.202,0.866,0.395,0.691,0.655,��,6.3,��
2020/04/17,21:10,0.695,1.007,0.658,1.204,0.862,0.397,0.691,0.655,��,5.6,��
2020/04/17,21:20,0.694,1.006,0.657,1.201,0.861,0.397,0.691,0.657,��,4.8,��
2020/04/17,21:30,0.692,1.004,0.658,1.204,0.863,0.397,0.690,0.657,��,5.6,��
2020/04/17,21:40,0.692,1.003,0.655,1.203,0.861,0.396,0.692,0.654,��,5.8,��
2020/04/17,21:50,0.694,1.001,0.656,1.202,0.861,0.397,0.692,0.657,��,5.6,��
2020/04/17,22:00,0.693,1.003,0.655,1.204,0.863,0.397,0.692,0.654,��,5.5,��
2020/04/17,22:10,0.690,1.004,0.655,1.205,0.862,0.397,0.693,0.655,��,4.8,��
2020/04/17,22:20,0.692,1.005,0.657,1.204,0.861,0.396,0.691,0.654,��,5.1,��
2020/04/17,22:30,0.693,1.004,0.657,1.204,0.860,0.397,0.693,0.655,��,4.1,��
2020/04/17,22:40,0.694,1.003,0.658,1.204,0.861,0.395,0.691,0.655,��,4.0,��
2020/04/17,22:50,0.694,1.002,0.656,1.205,0.860,0.397,0.690,0.656,��,4.3,��
2020/04/17,23:00,0.693,1.003,0.655,1.204,0.861,0.396,0.689,0.656,��,3.7,��
2020/04/17,23:10,0.692,1.002,0.655,1.204,0.863,0.396,0.692,0.655,��,3.7,��
2020/04/17,23:20,0.693,1.004,0.656,1.204,0.863,0.396,0.692,0.656,��,5.2,��
2020/04/17,23:30,0.692,1.003,0.656,1.203,0.861,0.396,0.691,0.657,��,4.2,��
2020/04/17,23:40,0.695,1.004,0.655,1.206,0.862,0.397,0.691,0.654,��쓌,3.9,��
2020/04/17,23:50,0.693,1.003,0.655,1.201,0.862,0.395,0.690,0.655,�쓌,1.2,��
